カタログに戻る

STARLINK-32523

運用中通信VLEO
NORAD 62165·PAYLOAD·🇺🇸 United States

打ち上げ Nov 30, 2024 から Vandenberg Space Force Base

Loading…

次のパス (今後24時間)

TLE

最新Source: CelesTrak SupGP

元期: Sep 15, 2026, 02:12 UTC

1 62165C 24225C   26258.09215278 -.00044976  00000+0 -37701-2 0  2581
2 62165  70.0018  46.9821 0002755 269.0157  92.5199 14.98344458    13

AllMySatでSTARLINK-32523をリアルタイム追跡

Download on the App Store